パンスターズ彗星

C/2015 X5 ( PanSTARRS )

English version
Home page
Updated on June 15, 2021

---------------------------------------------------------------------

・ プロフィール

発見日 2015年12月6日
発見光度 21.3等
発見者 Pan-STARRS 1 telescope (Haleakala)

・ 写真集

・ 軌道要素

Epoch 2018 Jan. 2.0 TT = JDT 2458120.5                                          
T 2017 Dec. 31.02910 TT                                 Rudenko                 
q   6.8017386            (2000.0)            P               Q                  
z  -0.0004896      Peri.   27.75231     -0.25136011     +0.67029003             
 +/-0.0000006      Node   122.31452     +0.66183235     -0.40736003             
e   1.0033298      Incl.  124.29091     +0.70625493     +0.62029757             
From 222 observations 2015 Dec. 6-2020 Feb. 14, mean residual 0".5.             

・ 光度変化

        m1 = 2.0 + 5 logΔ + 15.0 log r(t - 150)

---------------------------------------------------------------------

軌道要素はM.P.E.C. 2020-H235に掲載されたものです。
光度グラフはComet for Windowsで作成したものです。

---------------------------------------------------------------------

Copyright(C) Seiichi Yoshida (comet@aerith.net). All rights reserved.